Startpagina
METAR-TAF:

METAR-TAF

Vliegvelden :

Vliegbasis Woensdrecht

Woensdrecht, Nederland

breedte: 51-27N, lengte: 004-20E, hoogte: 20 m

Actueel weer

Dit bericht is 7 minuten geleden gemaakt, om 23:25 UTC
Wind 1 kt uit het zuidzuidwesten
Temperatuur 9°C
Vochtigheid 93%
Druk 1026 hPa
Zicht 10 km of meer

METAR: EHWO 122325Z AUTO 20001KT 9999 NCD 09/08 Q1026 BLU

Tijdstip: 01:32 (23:32 UTC)


TAF: ontbreekt

Waarnemingen en weersverwachtingen van meer dan 4000 vliegvelden (METAR en TAF).

De beschikbare stations zijn de gele en rode punten op de kaart.

Ga met uw muis naar het station om de naam te zien.

Klik dan om waarnemingen en weersverwachtingen te zien.

kaart wijzigen: klik op de groene knoppen met een zwart kruis om in te zoomen, op de groene knop met een streepje om uit te zoomen of op de groene pijlen voor aangrenzende kaarten.


METAR-TAF: